Location: Bernadets
(43.3537°N, 0.3167°E)
Time: 13:45:52
(UTC+00:00)

Lacrosse 4 Rocket - Pass Details

Date: 24 October 2021
Orbit: 537 x 619 km, 68.0° (Epoch: 08 December)

Event Time Altitude Azimuth Distance (km) Brightness Sun altitude
Rises 19:05:55 0° 323° (NW) 2,821 5.6 -23.3°
Reaches altitude 10° 19:08:15 10° 315° (NW) 1,930 4.7 -23.7°
Maximum altitude 19:12:16 37° 248° (WSW) 935 2.9 -24.4°
Enters shadow 19:15:06 17° 189° (S) 1,526 3.5 -24.9°
